Location: Follega
(52.8850°N, 5.7362°E)
Time: 22:28:32
(UTC+00:00)

STARLINK-1236 - Pass Details

Date: 05 October 2020
Orbit: 548 x 551 km, 53.0° (Epoch: 26 October)

Event Time Altitude Azimuth Distance (km) Brightness Sun altitude
Exits shadow 02:54:18 20° 136° (SE) 1,309 5.6 -25.9°
Drops below altitude 10° 02:55:41 10° 129° (SE) 1,824 6.5 -25.7°
Sets 02:57:57 0° 125° (SE) 2,716 7.5 -25.4°
